| time (UTC) | temp F | wind direction | speed MPH | gust MPH | rain 1hr in | rain 24hr in | rain mn in | humidity % | barometer mb |
| 20260831080341 | 55 | 134 | 2.0 | 4.0 | 0.00 | 0.00 | 0.00 | 94 | 1016.7 |
| 20260831075837 | 55 | 110 | 2.0 | 3.0 | 0.00 | 0.00 | 0.00 | 93 | 1016.6 |
| 20260831075332 | 55 | 324 | 0.0 | 3.0 | 0.00 | 0.00 | 0.00 | 93 | 1016.6 |
| 20260831074827 | 56 | 327 | 3.0 | 4.0 | 0.00 | 0.00 | 0.00 | 93 | 1016.9 |
| 20260831074326 | 55 | 330 | 3.0 | 4.0 | 0.00 | 0.00 | 0.00 | 94 | 1016.7 |
| 20260831073822 | 55 | 31 | 3.0 | 4.0 | 0.00 | 0.00 | 0.00 | 93 | 1017.0 |
| 20260831073321 | 55 | 13 | 4.0 | 5.0 | 0.00 | 0.00 | 0.00 | 94 | 1016.9 |
| 20260831072816 | 55 | 28 | 2.0 | 3.0 | 0.00 | 0.00 | 0.00 | 92 | 1017.0 |
| 20260831072312 | 55 | 82 | 2.0 | 3.0 | 0.00 | 0.00 | 0.00 | 91 | 1017.2 |
| 20260831071808 | 54 | 106 | 0.0 | 1.0 | 0.00 | 0.00 | 0.00 | 91 | 1017.1 |
| 20260831071302 | 54 | 77 | 0.0 | 2.0 | 0.00 | 0.00 | 0.00 | 91 | 1017.1 |
| 20260831070802 | 53 | 96 | 2.0 | 2.0 | 0.00 | 0.00 | 0.00 | 92 | 1017.1 |
| 20260831070301 | 53 | 45 | 2.0 | 3.0 | 0.00 | 0.00 | 0.00 | 92 | 1017.1 |
| 20260831065800 | 54 | 20 | 3.0 | 3.0 | 0.00 | 0.00 | 0.00 | 91 | 1017.3 |
| 20260831065258 | 54 | 26 | 2.0 | 3.0 | 0.00 | 0.00 | 0.00 | 91 | 1017.4 |
| 20260831064754 | 54 | 37 | 2.0 | 2.0 | 0.00 | 0.00 | 0.00 | 90 | 1017.5 |
| 20260831064249 | 54 | 86 | 0.0 | 2.0 | 0.00 | 0.00 | 0.00 | 90 | 1017.5 |
| 20260831063745 | 54 | 36 | 2.0 | 2.0 | 0.00 | 0.00 | 0.00 | 90 | 1017.7 |
| 20260831063240 | 54 | 53 | 2.0 | 3.0 | 0.00 | 0.00 | 0.00 | 91 | 1017.5 |
| 20260831062739 | 53 | 35 | 2.0 | 3.0 | 0.00 | 0.00 | 0.00 | 92 | 1017.7 |
| 20260831062234 | 53 | 32 | 2.0 | 3.0 | 0.00 | 0.00 | 0.00 | 92 | 1017.4 |
| 20260831061732 | 54 | 30 | 2.0 | 3.0 | 0.00 | 0.00 | 0.00 | 91 | 1017.7 |
| 20260831061228 | 54 | 16 | 2.0 | 2.0 | 0.00 | 0.00 | 0.00 | 91 | 1017.7 |
| 20260831060724 | 54 | 45 | 2.0 | 2.0 | 0.00 | 0.00 | 0.00 | 91 | 1017.7 |
| 20260831060219 | 55 | 21 | 0.0 | 2.0 | 0.00 | 0.00 | 0.00 | 91 | 1017.5 |
| 20260831055718 | 55 | 45 | 2.0 | 2.0 | 0.00 | 0.00 | 0.00 | 91 | 1017.9 |
| 20260831055213 | 55 | 53 | 1.0 | 1.0 | 0.00 | 0.00 | 0.00 | 92 | 1017.8 |
| 20260831054713 | 54 | 46 | 2.0 | 2.0 | 0.00 | 0.00 | 0.00 | 92 | 1018.0 |
| 20260831054208 | 55 | 40 | 1.0 | 2.0 | 0.00 | 0.00 | 0.00 | 91 | 1018.0 |
| 20260831053701 | 55 | 34 | 1.0 | 2.0 | 0.00 | 0.00 | 0.00 | 90 | 1017.8 |
| 20260831053200 | 55 | 59 | 2.0 | 2.0 | 0.00 | 0.00 | 0.00 | 91 | 1018.0 |
| 20260831052655 | 55 | 43 | 2.0 | 2.0 | 0.00 | 0.00 | 0.00 | 90 | 1018.0 |
| 20260831052154 | 55 | 40 | 2.0 | 2.0 | 0.00 | 0.00 | 0.00 | 90 | 1018.1 |
| 20260831051652 | 55 | 51 | 2.0 | 2.0 | 0.00 | 0.00 | 0.00 | 90 | 1018.1 |
| 20260831051151 | 56 | 49 | 0.0 | 1.0 | 0.00 | 0.00 | 0.00 | 90 | 1018.0 |
| 20260831050646 | 56 | 39 | 1.0 | 2.0 | 0.00 | 0.00 | 0.00 | 89 | 1018.2 |
| 20260831050145 | 56 | 113 | 1.0 | 2.0 | 0.00 | 0.00 | 0.00 | 89 | 1018.4 |
| 20260831045644 | 57 | 115 | 2.0 | 3.0 | 0.00 | 0.00 | 0.00 | 88 | 1018.4 |
| 20260831045139 | 57 | 120 | 2.0 | 3.0 | 0.00 | 0.00 | 0.00 | 88 | 1018.5 |
| 20260831044634 | 57 | 104 | 2.0 | 2.0 | 0.00 | 0.00 | 0.00 | 88 | 1018.4 |
| 20260831044129 | 57 | 97 | 2.0 | 2.0 | 0.00 | 0.00 | 0.00 | 88 | 1018.2 |
| 20260831043625 | 57 | 89 | 0.0 | 2.0 | 0.00 | 0.00 | 0.00 | 88 | 1018.2 |
| 20260831043120 | 57 | 70 | 0.0 | 1.0 | 0.00 | 0.00 | 0.00 | 88 | 1018.6 |
| 20260831042619 | 57 | 103 | 0.0 | 0.0 | 0.00 | 0.00 | 0.00 | 88 | 1018.7 |
| 20260831042114 | 57 | 80 | 0.0 | 0.0 | 0.00 | 0.00 | 0.00 | 87 | 1018.8 |
| 20260831041609 | 57 | 121 | 1.0 | 1.0 | 0.00 | 0.00 | 0.00 | 87 | 1018.5 |
| 20260831041108 | 58 | 124 | 2.0 | 2.0 | 0.00 | 0.00 | 0.00 | 86 | 1018.4 |
| 20260831040604 | 58 | 146 | 2.0 | 2.0 | 0.00 | 0.00 | 0.00 | 85 | 1018.8 |
| 20260831040057 | 58 | 118 | 2.0 | 2.0 | 0.00 | 0.00 | 0.00 | 85 | 1018.4 |
| 20260831035549 | 58 | 105 | 2.0 | 2.0 | 0.00 | 0.00 | 0.00 | 85 | 1018.6 |
| 20260831035044 | 58 | 101 | 0.0 | 2.0 | 0.00 | 0.00 | 0.00 | 85 | 1018.5 |
| 20260831034538 | 58 | 110 | 2.0 | 2.0 | 0.00 | 0.00 | 0.00 | 84 | 1018.6 |
| 20260831034034 | 58 | 109 | 1.0 | 2.0 | 0.00 | 0.00 | 0.00 | 84 | 1018.5 |
| 20260831033529 | 58 | 121 | 2.0 | 2.0 | 0.00 | 0.00 | 0.00 | 84 | 1018.7 |
| 20260831033024 | 59 | 102 | 0.0 | 2.0 | 0.00 | 0.00 | 0.00 | 84 | 1018.5 |
| 20260831032523 | 59 | 112 | 2.0 | 2.0 | 0.00 | 0.00 | 0.00 | 84 | 1018.5 |
| 20260831032019 | 59 | 107 | 2.0 | 2.0 | 0.00 | 0.00 | 0.00 | 83 | 1018.6 |
| 20260831031514 | 59 | 85 | 0.0 | 1.0 | 0.00 | 0.00 | 0.00 | 83 | 1018.4 |
| 20260831031013 | 59 | 63 | 2.0 | 2.0 | 0.00 | 0.00 | 0.00 | 82 | 1018.5 |
| 20260831030512 | 59 | 105 | 1.0 | 2.0 | 0.00 | 0.00 | 0.00 | 81 | 1018.5 |
| 20260831030012 | 59 | 124 | 2.0 | 2.0 | 0.00 | 0.00 | 0.00 | 81 | 1018.5 |
| 20260831025509 | 59 | 103 | 1.0 | 2.0 | 0.00 | 0.00 | 0.00 | 81 | 1018.6 |
| 20260831025005 | 59 | 128 | 2.0 | 2.0 | 0.00 | 0.00 | 0.00 | 82 | 1018.5 |
| 20260831024501 | 59 | 155 | 2.0 | 2.0 | 0.00 | 0.00 | 0.00 | 83 | 1018.8 |
| 20260831023959 | 60 | 125 | 1.0 | 1.0 | 0.00 | 0.00 | 0.00 | 82 | 1018.6 |
| 20260831023457 | 60 | 151 | 2.0 | 2.0 | 0.00 | 0.00 | 0.00 | 83 | 1018.7 |
| 20260831022948 | 60 | 132 | 1.0 | 2.0 | 0.00 | 0.00 | 0.00 | 82 | 1018.7 |
| 20260831022447 | 60 | 130 | 2.0 | 2.0 | 0.00 | 0.00 | 0.00 | 82 | 1018.7 |
| 20260831021942 | 60 | 114 | 2.0 | 3.0 | 0.00 | 0.00 | 0.00 | 82 | 1018.8 |
| 20260831021441 | 61 | 145 | 2.0 | 3.0 | 0.00 | 0.00 | 0.00 | 80 | 1018.8 |
| 20260831020937 | 61 | 145 | 1.0 | 2.0 | 0.00 | 0.00 | 0.00 | 81 | 1019.0 |
| 20260831020436 | 61 | 55 | 0.0 | 1.0 | 0.00 | 0.00 | 0.00 | 79 | 1019.0 |
| 20260831015931 | 61 | 48 | 0.0 | 2.0 | 0.00 | 0.00 | 0.00 | 78 | 1018.9 |
| 20260831015427 | 62 | 119 | 0.0 | 2.0 | 0.00 | 0.00 | 0.00 | 79 | 1018.9 |
| 20260831014922 | 62 | 113 | 1.0 | 2.0 | 0.00 | 0.00 | 0.00 | 78 | 1019.0 |
| 20260831014416 | 62 | 76 | 0.0 | 1.0 | 0.00 | 0.00 | 0.00 | 75 | 1019.0 |
| 20260831013912 | 62 | 115 | 1.0 | 2.0 | 0.00 | 0.00 | 0.00 | 75 | 1019.1 |
| 20260831013408 | 62 | 89 | 0.0 | 2.0 | 0.00 | 0.00 | 0.00 | 74 | 1019.1 |
| 20260831012902 | 62 | 136 | 1.0 | 2.0 | 0.00 | 0.00 | 0.00 | 75 | 1018.9 |
| 20260831012357 | 62 | 132 | 2.0 | 3.0 | 0.00 | 0.00 | 0.00 | 78 | 1019.0 |
| 20260831011857 | 62 | 118 | 1.0 | 2.0 | 0.00 | 0.00 | 0.00 | 76 | 1018.9 |
| 20260831011346 | 62 | 143 | 2.0 | 2.0 | 0.00 | 0.00 | 0.00 | 77 | 1019.0 |
| 20260831010842 | 62 | 140 | 0.0 | 2.0 | 0.00 | 0.00 | 0.00 | 75 | 1019.2 |
| 20260831010341 | 62 | 50 | 0.0 | 3.0 | 0.00 | 0.00 | 0.00 | 75 | 1019.3 |
| 20260831005837 | 62 | 105 | 1.0 | 2.0 | 0.00 | 0.00 | 0.00 | 75 | 1019.4 |
| 20260831005333 | 62 | 93 | 1.0 | 2.0 | 0.00 | 0.00 | 0.00 | 74 | 1019.4 |
| 20260831004828 | 62 | 141 | 3.0 | 3.0 | 0.00 | 0.00 | 0.00 | 75 | 1019.7 |
| 20260831004324 | 62 | 136 | 1.0 | 3.0 | 0.00 | 0.00 | 0.00 | 75 | 1019.3 |
| 20260831003820 | 62 | 170 | 2.0 | 3.0 | 0.00 | 0.00 | 0.00 | 74 | 1019.5 |
| 20260831003316 | 63 | 142 | 4.0 | 4.0 | 0.00 | 0.00 | 0.00 | 73 | 1019.5 |
| 20260831002815 | 63 | 156 | 2.0 | 2.0 | 0.00 | 0.00 | 0.00 | 72 | 1019.4 |
| 20260831002314 | 63 | 142 | 3.0 | 4.0 | 0.00 | 0.00 | 0.00 | 73 | 1019.6 |
| 20260831001810 | 62 | 106 | 1.0 | 2.0 | 0.00 | 0.00 | 0.00 | 72 | 1019.7 |
| 20260831001305 | 63 | 65 | 1.0 | 3.0 | 0.00 | 0.00 | 0.00 | 72 | 1019.5 |
| 20260831000802 | 63 | 73 | 2.0 | 4.0 | 0.00 | 0.00 | 0.00 | 71 | 1019.7 |
| 20260831000303 | 64 | 111 | 1.0 | 2.0 | 0.00 | 0.00 | 0.00 | 70 | 1019.6 |
| 20260830235800 | 64 | 355 | 2.0 | 3.0 | 0.00 | 0.00 | 0.00 | 70 | 1019.4 |
| 20260830235255 | 65 | 155 | 2.0 | 2.0 | 0.00 | 0.00 | 0.00 | 69 | 1019.5 |
| 20260830234750 | 65 | 4 | 0.0 | 2.0 | 0.00 | 0.00 | 0.00 | 68 | 1019.6 |
| 20260830234246 | 65 | 77 | 0.0 | 3.0 | 0.00 | 0.00 | 0.00 | 68 | 1019.3 |
| 20260830233742 | 65 | 87 | 0.0 | 6.0 | 0.00 | 0.00 | 0.00 | 67 | 1019.4 |
| 20260830233238 | 66 | 354 | 0.0 | 1.0 | 0.00 | 0.00 | 0.00 | 66 | 1019.5 |
| 20260830232733 | 66 | 99 | 0.0 | 2.0 | 0.00 | 0.00 | 0.00 | 67 | 1019.4 |
| 20260830232228 | 67 | 120 | 2.0 | 2.0 | 0.00 | 0.00 | 0.00 | 65 | 1019.5 |
| 20260830231725 | 66 | 93 | 1.0 | 4.0 | 0.00 | 0.00 | 0.00 | 66 | 1019.7 |
| 20260830231224 | 67 | 127 | 0.0 | 3.0 | 0.00 | 0.00 | 0.00 | 64 | 1019.4 |
| 20260830230719 | 67 | 12 | 2.0 | 3.0 | 0.00 | 0.00 | 0.00 | 64 | 1019.7 |
| 20260830230214 | 66 | 14 | 2.0 | 2.0 | 0.00 | 0.00 | 0.00 | 66 | 1019.6 |
| 20260830225709 | 66 | 44 | 0.0 | 3.0 | 0.00 | 0.00 | 0.00 | 67 | 1019.7 |
| 20260830225209 | 66 | 24 | 2.0 | 2.0 | 0.00 | 0.00 | 0.00 | 66 | 1019.4 |
| 20260830224708 | 66 | 47 | 1.0 | 1.0 | 0.00 | 0.00 | 0.00 | 67 | 1019.5 |
| 20260830224204 | 66 | 97 | 2.0 | 3.0 | 0.00 | 0.00 | 0.00 | 65 | 1019.6 |
| 20260830223701 | 67 | 296 | 0.0 | 2.0 | 0.00 | 0.00 | 0.00 | 65 | 1019.7 |
| 20260830223156 | 66 | 179 | 3.0 | 5.0 | 0.00 | 0.00 | 0.00 | 65 | 1019.5 |
| 20260830222650 | 66 | 290 | 1.0 | 2.0 | 0.00 | 0.00 | 0.00 | 64 | 1019.6 |
| 20260830222146 | 67 | 178 | 4.0 | 5.0 | 0.00 | 0.00 | 0.00 | 63 | 1019.8 |
| 20260830221642 | 66 | 132 | 2.0 | 3.0 | 0.00 | 0.00 | 0.00 | 66 | 1019.7 |
| 20260830221138 | 67 | 140 | 1.0 | 3.0 | 0.00 | 0.00 | 0.00 | 65 | 1019.9 |
| 20260830220633 | 67 | 153 | 1.0 | 3.0 | 0.00 | 0.00 | 0.00 | 65 | 1019.9 |
| 20260830220132 | 67 | 148 | 2.0 | 3.0 | 0.00 | 0.00 | 0.00 | 65 | 1019.8 |
| 20260830215631 | 66 | 187 | 3.0 | 3.0 | 0.00 | 0.00 | 0.00 | 64 | 1020.0 |
| 20260830215126 | 67 | 159 | 3.0 | 4.0 | 0.00 | 0.00 | 0.00 | 64 | 1020.0 |
| 20260830214621 | 66 | 150 | 2.0 | 7.0 | 0.00 | 0.00 | 0.00 | 64 | 1019.9 |
| 20260830214116 | 66 | 169 | 1.0 | 6.0 | 0.00 | 0.00 | 0.00 | 64 | 1020.0 |
| 20260830213615 | 66 | 177 | 4.0 | 5.0 | 0.00 | 0.00 | 0.00 | 65 | 1020.2 |
| 20260830213111 | 65 | 145 | 2.0 | 5.0 | 0.00 | 0.00 | 0.00 | 66 | 1020.1 |
| 20260830212606 | 66 | 179 | 4.0 | 5.0 | 0.00 | 0.00 | 0.00 | 65 | 1020.1 |
| 20260830212101 | 66 | 157 | 2.0 | 4.0 | 0.00 | 0.00 | 0.00 | 67 | 1019.9 |
| 20260830211555 | 66 | 195 | 2.0 | 6.0 | 0.00 | 0.00 | 0.00 | 68 | 1019.8 |
| 20260830211049 | 66 | 172 | 2.0 | 6.0 | 0.00 | 0.00 | 0.00 | 69 | 1020.1 |
| 20260830210545 | 66 | 172 | 3.0 | 4.0 | 0.00 | 0.00 | 0.00 | 66 | 1019.9 |
| 20260830210044 | 66 | 132 | 3.0 | 4.0 | 0.00 | 0.00 | 0.00 | 66 | 1019.9 |
| 20260830205542 | 67 | 185 | 1.0 | 3.0 | 0.00 | 0.00 | 0.00 | 66 | 1019.8 |
| 20260830205037 | 66 | 180 | 3.0 | 6.0 | 0.00 | 0.00 | 0.00 | 66 | 1020.1 |
| 20260830204536 | 66 | 128 | 4.0 | 6.0 | 0.00 | 0.00 | 0.00 | 70 | 1020.1 |
| 20260830204036 | 65 | 139 | 3.0 | 5.0 | 0.00 | 0.00 | 0.00 | 68 | 1020.2 |
| 20260830203533 | 65 | 179 | 2.0 | 6.0 | 0.00 | 0.00 | 0.00 | 69 | 1019.9 |
| 20260830203032 | 65 | 161 | 1.0 | 5.0 | 0.00 | 0.00 | 0.00 | 69 | 1020.2 |
| 20260830202527 | 65 | 174 | 1.0 | 5.0 | 0.00 | 0.00 | 0.00 | 68 | 1020.2 |
| 20260830202023 | 65 | 174 | 4.0 | 4.0 | 0.00 | 0.00 | 0.00 | 68 | 1020.1 |
| 20260830201522 | 66 | 144 | 3.0 | 4.0 | 0.00 | 0.00 | 0.00 | 65 | 1020.1 |
| 20260830201017 | 66 | 143 | 1.0 | 4.0 | 0.00 | 0.00 | 0.00 | 67 | 1020.0 |
| 20260830200512 | 66 | 135 | 3.0 | 6.0 | 0.00 | 0.00 | 0.00 | 65 | 1020.1 |
| 20260830200012 | 68 | 155 | 2.0 | 5.0 | 0.00 | 0.00 | 0.00 | 66 | 1019.9 |
| 20260830195507 | 66 | 166 | 5.0 | 6.0 | 0.00 | 0.00 | 0.00 | 66 | 1020.1 |
| 20260830195004 | 67 | 170 | 2.0 | 6.0 | 0.00 | 0.00 | 0.00 | 65 | 1019.9 |
| 20260830194459 | 67 | 128 | 3.0 | 5.0 | 0.00 | 0.00 | 0.00 | 63 | 1019.9 |
| 20260830193954 | 66 | 169 | 4.0 | 4.0 | 0.00 | 0.00 | 0.00 | 65 | 1020.2 |
| 20260830193453 | 64 | 160 | 3.0 | 6.0 | 0.00 | 0.00 | 0.00 | 68 | 1020.1 |
| 20260830192948 | 66 | 112 | 4.0 | 4.0 | 0.00 | 0.00 | 0.00 | 71 | 1020.4 |
| 20260830192443 | 65 | 143 | 2.0 | 6.0 | 0.00 | 0.00 | 0.00 | 68 | 1020.1 |
| 20260830191938 | 65 | 167 | 4.0 | 10.0 | 0.00 | 0.00 | 0.00 | 67 | 1020.3 |
| 20260830191432 | 65 | 136 | 2.0 | 5.0 | 0.00 | 0.00 | 0.00 | 69 | 1020.3 |
| 20260830190928 | 64 | 189 | 2.0 | 5.0 | 0.00 | 0.00 | 0.00 | 70 | 1020.3 |
| 20260830190423 | 63 | 113 | 2.0 | 4.0 | 0.00 | 0.00 | 0.00 | 70 | 1020.2 |
| 20260830185922 | 64 | 191 | 4.0 | 7.0 | 0.00 | 0.00 | 0.00 | 68 | 1020.3 |
| 20260830185418 | 65 | 132 | 3.0 | 4.0 | 0.00 | 0.00 | 0.00 | 68 | 1020.4 |
| 20260830184913 | 65 | 128 | 3.0 | 5.0 | 0.00 | 0.00 | 0.00 | 67 | 1020.5 |
| 20260830184412 | 64 | 139 | 1.0 | 3.0 | 0.00 | 0.00 | 0.00 | 68 | 1020.3 |
| 20260830183911 | 64 | 147 | 2.0 | 4.0 | 0.00 | 0.00 | 0.00 | 68 | 1020.6 |
| 20260830183406 | 63 | 121 | 4.0 | 5.0 | 0.00 | 0.00 | 0.00 | 69 | 1020.5 |
| 20260830182902 | 64 | 150 | 2.0 | 4.0 | 0.00 | 0.00 | 0.00 | 70 | 1020.5 |
| 20260830182357 | 63 | 160 | 3.0 | 6.0 | 0.00 | 0.00 | 0.00 | 70 | 1020.3 |
| 20260830181854 | 63 | 137 | 1.0 | 4.0 | 0.00 | 0.00 | 0.00 | 70 | 1020.4 |
| 20260830181349 | 63 | 159 | 4.0 | 5.0 | 0.00 | 0.00 | 0.00 | 69 | 1020.5 |
| 20260830180848 | 66 | 174 | 6.0 | 6.0 | 0.00 | 0.00 | 0.00 | 65 | 1020.4 |
| 20260830180343 | 66 | 129 | 2.0 | 3.0 | 0.00 | 0.00 | 0.00 | 67 | 1020.2 |
| 20260830175842 | 66 | 110 | 3.0 | 6.0 | 0.00 | 0.00 | 0.00 | 69 | 1020.3 |
| 20260830175337 | 65 | 134 | 2.0 | 5.0 | 0.00 | 0.00 | 0.00 | 67 | 1020.1 |
| 20260830174832 | 63 | 144 | 3.0 | 6.0 | 0.00 | 0.00 | 0.00 | 72 | 1020.2 |
| 20260830174327 | 62 | 155 | 0.0 | 6.0 | 0.00 | 0.00 | 0.00 | 73 | 1020.3 |
| 20260830173827 | 64 | 137 | 2.0 | 6.0 | 0.00 | 0.00 | 0.00 | 71 | 1020.2 |
| 20260830173323 | 64 | 141 | 3.0 | 6.0 | 0.00 | 0.00 | 0.00 | 70 | 1020.2 |
| 20260830172819 | 63 | 152 | 3.0 | 4.0 | 0.00 | 0.00 | 0.00 | 74 | 1020.4 |
| 20260830172315 | 63 | 164 | 4.0 | 4.0 | 0.00 | 0.00 | 0.00 | 76 | 1020.2 |
| 20260830171811 | 63 | 154 | 3.0 | 4.0 | 0.00 | 0.00 | 0.00 | 75 | 1020.2 |
| 20260830171306 | 63 | 91 | 0.0 | 4.0 | 0.00 | 0.00 | 0.00 | 75 | 1020.2 |
| 20260830170801 | 61 | 150 | 2.0 | 6.0 | 0.00 | 0.00 | 0.00 | 77 | 1020.4 |
| 20260830170300 | 62 | 157 | 3.0 | 5.0 | 0.00 | 0.00 | 0.00 | 76 | 1020.1 |
| 20260830165759 | 62 | 140 | 1.0 | 8.0 | 0.00 | 0.00 | 0.00 | 77 | 1020.3 |
| 20260830165255 | 61 | 137 | 2.0 | 5.0 | 0.00 | 0.00 | 0.00 | 79 | 1020.4 |
| 20260830164751 | 61 | 114 | 4.0 | 5.0 | 0.00 | 0.00 | 0.00 | 80 | 1020.2 |
| 20260830164246 | 60 | 130 | 2.0 | 5.0 | 0.00 | 0.00 | 0.00 | 84 | 1020.4 |
| 20260830163743 | 58 | 89 | 0.0 | 2.0 | 0.00 | 0.00 | 0.00 | 84 | 1020.4 |
| 20260830163239 | 58 | 105 | 4.0 | 6.0 | 0.00 | 0.00 | 0.00 | 85 | 1020.6 |
| 20260830162732 | 58 | 101 | 2.0 | 4.0 | 0.00 | 0.00 | 0.00 | 84 | 1020.4 |
| 20260830162229 | 58 | 129 | 0.0 | 4.0 | 0.00 | 0.00 | 0.00 | 84 | 1020.3 |
| 20260830161725 | 57 | 184 | 0.0 | 6.0 | 0.00 | 0.00 | 0.00 | 85 | 1020.3 |
| 20260830161219 | 57 | 118 | 5.0 | 5.0 | 0.00 | 0.00 | 0.00 | 88 | 1020.3 |
| 20260830160715 | 57 | 131 | 3.0 | 5.0 | 0.00 | 0.00 | 0.00 | 89 | 1020.3 |
| 20260830160214 | 56 | 113 | 2.0 | 6.0 | 0.00 | 0.00 | 0.00 | 87 | 1020.2 |
| 20260830155706 | 56 | 111 | 2.0 | 3.0 | 0.00 | 0.00 | 0.00 | 88 | 1020.3 |
| 20260830155201 | 56 | 146 | 2.0 | 4.0 | 0.00 | 0.00 | 0.00 | 88 | 1020.2 |
| 20260830154656 | 56 | 121 | 3.0 | 3.0 | 0.00 | 0.00 | 0.00 | 88 | 1020.4 |
| 20260830154152 | 56 | 118 | 1.0 | 4.0 | 0.00 | 0.00 | 0.00 | 88 | 1020.6 |
| 20260830153649 | 55 | 137 | 2.0 | 3.0 | 0.00 | 0.00 | 0.00 | 88 | 1020.3 |
| 20260830153148 | 55 | 127 | 2.0 | 4.0 | 0.00 | 0.00 | 0.00 | 88 | 1020.3 |
| 20260830152647 | 55 | 120 | 3.0 | 5.0 | 0.00 | 0.00 | 0.00 | 90 | 1020.1 |
| 20260830152147 | 55 | 118 | 2.0 | 4.0 | 0.00 | 0.00 | 0.00 | 91 | 1020.4 |
| 20260830151642 | 55 | 122 | 2.0 | 4.0 | 0.00 | 0.00 | 0.00 | 91 | 1020.5 |
| 20260830151141 | 55 | 126 | 3.0 | 3.0 | 0.00 | 0.00 | 0.00 | 91 | 1020.5 |
| 20260830150636 | 55 | 128 | 2.0 | 4.0 | 0.00 | 0.00 | 0.00 | 92 | 1020.5 |
| 20260830150130 | 55 | 148 | 3.0 | 4.0 | 0.00 | 0.00 | 0.00 | 93 | 1020.2 |
| 20260830145630 | 55 | 129 | 2.0 | 4.0 | 0.00 | 0.00 | 0.00 | 92 | 1020.4 |
| 20260830145125 | 55 | 115 | 4.0 | 4.0 | 0.00 | 0.00 | 0.00 | 92 | 1020.2 |
| 20260830144621 | 55 | 106 | 3.0 | 4.0 | 0.00 | 0.00 | 0.00 | 92 | 1020.1 |
| 20260830144116 | 55 | 127 | 1.0 | 4.0 | 0.00 | 0.00 | 0.00 | 92 | 1020.0 |
| 20260830143612 | 54 | 100 | 2.0 | 3.0 | 0.00 | 0.00 | 0.00 | 93 | 1020.1 |
| 20260830143110 | 54 | 97 | 1.0 | 2.0 | 0.00 | 0.00 | 0.00 | 92 | 1020.1 |
| 20260830142606 | 53 | 79 | 2.0 | 2.0 | 0.00 | 0.00 | 0.00 | 93 | 1019.9 |
| 20260830142100 | 53 | 65 | 1.0 | 2.0 | 0.00 | 0.00 | 0.00 | 93 | 1019.9 |
| 20260830141556 | 53 | 82 | 2.0 | 3.0 | 0.00 | 0.00 | 0.00 | 93 | 1019.8 |
| 20260830141051 | 53 | 38 | 2.0 | 3.0 | 0.00 | 0.00 | 0.00 | 94 | 1020.0 |
| 20260830140550 | 53 | 39 | 2.0 | 2.0 | 0.00 | 0.00 | 0.00 | 93 | 1019.9 |
| 20260830140046 | 53 | 125 | 0.0 | 2.0 | 0.00 | 0.00 | 0.00 | 93 | 1019.8 |
| 20260830135541 | 53 | 78 | 2.0 | 3.0 | 0.00 | 0.00 | 0.00 | 94 | 1019.8 |
| 20260830135036 | 52 | 57 | 0.0 | 4.0 | 0.00 | 0.00 | 0.00 | 94 | 1019.8 |
| 20260830134532 | 53 | 133 | 2.0 | 5.0 | 0.00 | 0.00 | 0.00 | 94 | 1019.5 |
| 20260830134027 | 52 | 95 | 0.0 | 3.0 | 0.00 | 0.00 | 0.00 | 94 | 1019.5 |
| 20260830133523 | 52 | 80 | 1.0 | 4.0 | 0.00 | 0.00 | 0.00 | 94 | 1019.6 |
| 20260830133018 | 53 | 25 | 0.0 | 2.0 | 0.00 | 0.00 | 0.00 | 93 | 1019.3 |
| 20260830132514 | 53 | 92 | 1.0 | 2.0 | 0.00 | 0.00 | 0.00 | 93 | 1019.5 |
| 20260830132009 | 53 | 57 | 0.0 | 2.0 | 0.00 | 0.00 | 0.00 | 93 | 1019.2 |
| 20260830131507 | 53 | 121 | 0.0 | 2.0 | 0.00 | 0.00 | 0.00 | 93 | 1019.5 |
| 20260830131001 | 53 | 103 | 3.0 | 4.0 | 0.00 | 0.00 | 0.00 | 93 | 1019.4 |
| 20260830130457 | 53 | 51 | 3.0 | 3.0 | 0.00 | 0.00 | 0.00 | 93 | 1019.5 |
| 20260830125955 | 53 | 81 | 2.0 | 2.0 | 0.00 | 0.00 | 0.00 | 94 | 1019.5 |
| 20260830125451 | 52 | 73 | 2.0 | 2.0 | 0.00 | 0.00 | 0.00 | 95 | 1019.6 |
| 20260830124950 | 52 | 46 | 1.0 | 2.0 | 0.00 | 0.00 | 0.00 | 95 | 1019.5 |
| 20260830124445 | 52 | 55 | 0.0 | 2.0 | 0.00 | 0.00 | 0.00 | 96 | 1019.8 |
| 20260830123941 | 53 | 54 | 1.0 | 2.0 | 0.00 | 0.00 | 0.00 | 95 | 1019.6 |
| 20260830123437 | 53 | 87 | 1.0 | 2.0 | 0.00 | 0.00 | 0.00 | 95 | 1019.7 |
| 20260830122935 | 53 | 155 | 3.0 | 3.0 | 0.00 | 0.00 | 0.00 | 94 | 1019.5 |
| 20260830122435 | 53 | 128 | 2.0 | 4.0 | 0.00 | 0.00 | 0.00 | 94 | 1019.6 |
| 20260830121930 | 53 | 146 | 2.0 | 3.0 | 0.00 | 0.00 | 0.00 | 95 | 1019.7 |
| 20260830121425 | 53 | 160 | 2.0 | 5.0 | 0.00 | 0.00 | 0.00 | 96 | 1019.7 |
| 20260830120920 | 52 | 182 | 1.0 | 2.0 | 0.00 | 0.00 | 0.00 | 96 | 1019.8 |
| 20260830120415 | 52 | 119 | 1.0 | 2.0 | 0.00 | 0.00 | 0.00 | 96 | 1019.9 |
| 20260830115911 | 52 | 95 | 0.0 | 2.0 | 0.00 | 0.00 | 0.00 | 96 | 1019.8 |
| 20260830115408 | 52 | 95 | 2.0 | 2.0 | 0.00 | 0.00 | 0.00 | 96 | 1019.9 |
| 20260830114903 | 52 | 66 | 0.0 | 1.0 | 0.00 | 0.00 | 0.00 | 96 | 1020.0 |
| 20260830114359 | 52 | 74 | 1.0 | 2.0 | 0.00 | 0.00 | 0.00 | 96 | 1019.9 |
| 20260830113854 | 52 | 111 | 2.0 | 2.0 | 0.00 | 0.00 | 0.00 | 96 | 1019.9 |
| 20260830113349 | 52 | 78 | 2.0 | 2.0 | 0.00 | 0.00 | 0.00 | 96 | 1020.0 |
| 20260830112844 | 52 | 85 | 1.0 | 2.0 | 0.00 | 0.00 | 0.00 | 96 | 1019.9 |
| 20260830112340 | 52 | 89 | 0.0 | 1.0 | 0.00 | 0.00 | 0.00 | 96 | 1019.7 |
| 20260830111836 | 52 | 80 | 1.0 | 2.0 | 0.00 | 0.00 | 0.00 | 96 | 1019.8 |
| 20260830111331 | 52 | 71 | 1.0 | 2.0 | 0.00 | 0.00 | 0.00 | 96 | 1019.9 |
| 20260830110826 | 52 | 35 | 2.0 | 3.0 | 0.00 | 0.00 | 0.00 | 96 | 1019.8 |
| 20260830110322 | 52 | 53 | 2.0 | 2.0 | 0.00 | 0.00 | 0.00 | 96 | 1020.0 |
| 20260830105821 | 52 | 114 | 1.0 | 1.0 | 0.00 | 0.00 | 0.00 | 96 | 1019.8 |
| 20260830105318 | 52 | 77 | 1.0 | 2.0 | 0.00 | 0.00 | 0.00 | 96 | 1019.7 |
| 20260830104814 | 52 | 67 | 0.0 | 1.0 | 0.00 | 0.00 | 0.00 | 96 | 1019.7 |
| 20260830104310 | 52 | 77 | 0.0 | 2.0 | 0.00 | 0.00 | 0.00 | 96 | 1019.3 |
| 20260830103809 | 52 | 97 | 2.0 | 2.0 | 0.00 | 0.00 | 0.00 | 96 | 1019.5 |
| 20260830103305 | 52 | 98 | 1.0 | 2.0 | 0.00 | 0.00 | 0.00 | 96 | 1019.4 |
| 20260830102803 | 52 | 108 | 3.0 | 4.0 | 0.00 | 0.00 | 0.00 | 96 | 1019.6 |
| 20260830102259 | 52 | 115 | 3.0 | 3.0 | 0.00 | 0.00 | 0.00 | 96 | 1019.6 |
| 20260830101755 | 52 | 130 | 2.0 | 2.0 | 0.00 | 0.00 | 0.00 | 96 | 1019.5 |
| 20260830101250 | 52 | 112 | 2.0 | 2.0 | 0.00 | 0.00 | 0.00 | 95 | 1019.6 |
| 20260830100748 | 52 | 67 | 0.0 | 1.0 | 0.00 | 0.00 | 0.00 | 95 | 1019.4 |
| 20260830100244 | 52 | 103 | 1.0 | 2.0 | 0.00 | 0.00 | 0.00 | 96 | 1019.3 |
| 20260830095742 | 52 | 56 | 2.0 | 2.0 | 0.00 | 0.00 | 0.00 | 96 | 1019.6 |
| 20260830095239 | 52 | 66 | 0.0 | 2.0 | 0.00 | 0.00 | 0.00 | 96 | 1019.5 |
| 20260830094734 | 52 | 58 | 1.0 | 2.0 | 0.00 | 0.00 | 0.00 | 95 | 1019.6 |
| 20260830094230 | 52 | 40 | 1.0 | 2.0 | 0.00 | 0.00 | 0.00 | 95 | 1019.5 |
| 20260830093725 | 52 | 32 | 0.0 | 1.0 | 0.00 | 0.00 | 0.00 | 96 | 1019.4 |
| 20260830093222 | 52 | 36 | 0.0 | 2.0 | 0.00 | 0.00 | 0.00 | 96 | 1019.5 |
| 20260830092721 | 52 | 6 | 2.0 | 3.0 | 0.00 | 0.00 | 0.00 | 96 | 1019.4 |
| 20260830092218 | 52 | 44 | 0.0 | 2.0 | 0.00 | 0.00 | 0.00 | 95 | 1019.3 |
| 20260830091714 | 52 | 36 | 2.0 | 2.0 | 0.00 | 0.00 | 0.00 | 95 | 1019.4 |
| 20260830091213 | 52 | 67 | 1.0 | 1.0 | 0.00 | 0.00 | 0.00 | 95 | 1019.4 |
| 20260830090712 | 52 | 107 | 2.0 | 2.0 | 0.00 | 0.00 | 0.00 | 94 | 1019.5 |
| 20260830090208 | 52 | 108 | 2.0 | 2.0 | 0.00 | 0.00 | 0.00 | 94 | 1019.5 |
| 20260830085707 | 52 | 107 | 2.0 | 2.0 | 0.00 | 0.00 | 0.00 | 94 | 1019.4 |
| 20260830085203 | 52 | 139 | 3.0 | 3.0 | 0.00 | 0.00 | 0.00 | 94 | 1019.5 |
| 20260830084658 | 53 | 163 | 4.0 | 4.0 | 0.00 | 0.00 | 0.00 | 93 | 1019.5 |
| 20260830084153 | 54 | 137 | 3.0 | 3.0 | 0.00 | 0.00 | 0.00 | 92 | 1019.4 |
| 20260830083648 | 54 | 125 | 2.0 | 3.0 | 0.00 | 0.00 | 0.00 | 91 | 1019.5 |
| 20260830083144 | 55 | 120 | 2.0 | 2.0 | 0.00 | 0.00 | 0.00 | 88 | 1019.3 |
| 20260830082638 | 54 | 108 | 3.0 | 4.0 | 0.00 | 0.00 | 0.00 | 88 | 1019.3 |
| 20260830082134 | 54 | 110 | 2.0 | 2.0 | 0.00 | 0.00 | 0.00 | 88 | 1019.3 |
| 20260830081630 | 54 | 41 | 1.0 | 1.0 | 0.00 | 0.00 | 0.00 | 88 | 1019.3 |
| 20260830081128 | 54 | 69 | 0.0 | 2.0 | 0.00 | 0.00 | 0.00 | 89 | 1019.2 |
| 20260830080623 | 54 | 120 | 2.0 | 2.0 | 0.00 | 0.00 | 0.00 | 88 | 1019.1 |